Flag Weather past 2 weeks in Charlottetown, Pr.Edward I, Canada

Now
52 °F

Passing clouds.


Feels Like: 49 °F
Forecast: 33 / 47 °F
Wind: 7 mph from Southwest

Location: Charlottetown

Current Time: Nov 25, 2014 at 8:29:36 PM

Latest Report: Nov 25, 2014 at 7:00 PM


Visibility: 15 mi

Pressure: 29.75 "Hg

Humidity: 82%

Dew point: 46 °F

Location of CharlottetownLocation

Historic Weather in Charlottetown — Graph

°F

Charlottetown temperature yesterday

Maximum temperature yesterday: 59 °F (at 11:00 PM)
Minimum temperature yesterday: 34 °F (at 5:00 AM)
Average temperature yesterday: 43 °F

Past Weeks' High & Low Weather Summary

 TemperatureHumidityPressure
High61 °F (Nov 25, 12:00 PM)100% (Nov 12, 12:00 AM)30.31 "Hg (Nov 12, 12:00 AM)
Low19 °F (Nov 22, 5:00 AM)43% (Nov 18, 11:00 PM)29.23 "Hg (Nov 18, 8:00 AM)
Average36 °F80%29.91 "Hg
* Reported Nov 10 7:00 PM — Nov 25 7:00 PM, Charlottetown, Weather by CustomWeather, © 2014

Note: Actual official high and low records may vary slightly from our data, if they occured in-between our weather recording intervals... More about our weather records

Advertising

Charlottetown weather history for previous 24 hours

 ConditionsComfort  
Time TempWeatherWind HumidityBarometerVisibility
7:00 PM
Nov 25
52 °FPassing clouds.7 mph82%29.75 "Hg15 mi
6:00 PM52 °FPassing clouds.8 mph82%29.74 "Hg15 mi
5:00 PM54 °FPassing clouds.12 mph72%29.74 "Hg15 mi
4:00 PM57 °FPartly sunny.14 mph67%29.71 "Hg15 mi
3:00 PM61 °FPartly sunny.18 mph68%29.69 "Hg15 mi
2:00 PM61 °FPartly sunny.17 mph72%29.67 "Hg15 mi
1:00 PM59 °FPartly sunny.20 mph82%29.68 "Hg15 mi
12:00 PM61 °FPartly sunny.17 mph77%29.67 "Hg15 mi
11:00 AM59 °FPartly sunny.13 mph82%29.70 "Hg15 mi
10:00 AM57 °FPartly sunny.18 mph82%29.69 "Hg15 mi
9:00 AM54 °FPartly sunny.13 mph88%29.68 "Hg15 mi
8:00 AM55 °FPartly sunny.13 mph88%29.67 "Hg15 mi
7:00 AM55 °FPassing clouds.14 mph88%29.64 "Hg12 mi
6:00 AM55 °FPassing clouds.13 mph88%29.62 "Hg15 mi
5:00 AM57 °FPassing clouds.13 mph88%29.61 "Hg15 mi
4:00 AM59 °FPassing clouds.16 mph82%29.61 "Hg15 mi
3:00 AM59 °FPassing clouds.22 mph82%29.59 "Hg15 mi
2:00 AM59 °FPassing clouds.16 mph94%29.58 "Hg15 mi
1:00 AM59 °FMostly cloudy.21 mph88%29.57 "Hg15 mi
12:00 AM59 °FOvercast.30 mph88%29.58 "Hg15 mi
11:00 PM
Nov 24
59 °FLow clouds.26 mph88%29.62 "Hg15 mi
10:00 PM57 °FLow clouds.26 mph88%29.66 "Hg15 mi
9:00 PM54 °FLight rain. Low clouds.28 mph94%29.68 "Hg12 mi
8:00 PM52 °FLight rain. Fog.22 mph100%29.73 "Hg6 mi
Weather by CustomWeather, © 2014

See weather overviewHow to use our weather pages